Location: Houhaj�rvi
(61.2833°N, 23.0000°E)
Time: 06:27:30
(UTC+00:00)

Cosmos 2278 Rocket - Pass Details

Date: 27 February 2020
Orbit: 840 x 846 km, 71.0° (Epoch: 09 April)

Event Time Altitude Azimuth Distance (km) Brightness Sun altitude
Rises 19:52:05 0° 301° (WNW) 3,409 6.6 -28.6°
Reaches altitude 10° 19:54:46 10° 311° (NW) 2,474 5.6 -28.9°
Maximum altitude 19:59:57 35° 17° (NNE) 1,338 3.4 -29.3°
Enters shadow 20:00:48 34° 35° (NE) 1,380 3.3 -29.4°
